Aerocube 8C

operational
NORAD ID: 41853 Int'l Des: 2016-067 Owner: AERO Country: US
LEOCIRCULARRETROGRADE

About Aerocube 8C

Description loading...

Live Position

Loading 3D Globe...

Upcoming Passes

Altitude History

Altitude vs Time

uPlot chart will show altitude changes over time

Two-Line Element Set

1 41853U 16067F 25345.08820860 .00013214 00000-0 59514-3 0 9990
2 41853 98.0760 193.5743 0005930 5.4653 354.6644 15.21198193497434
Epoch: Dec 11, 2025 • Age: 23 hours

Current Status

Altitude 508.4 km
Velocity 7.61 km/s
Sub-Earth Point 14.86°N, 78.37°W
Launch Date Nov 11, 2016
Age 9 years
Type other

Technical Details

Classification Payload
Mass 2.00 kg
Dry Mass 2.00 kg
Total Mass 2.00 kg
Length 0.20 m
Diameter 0.10 m
Span 0.20 m
Shape Box
Manufacturer AERO
Bus Type Cubesat 1.5U
Phase Status In Orbit
Owner/State AERO/US

Large Constellations

Loading constellations...